QPF
0.01 0.06 0.03 0.01 0.01 0.02 0.02 0.02 0.02 0.02 0.03 0.04 0.05 0.06 0.07 0.07 0.07 0.08 0.07 0.07 0.09 0.12 0.14 0.17 0.19 0.21 0.19 0.18 0.17 0.18 0.20 0.22 0.23 0.22 0.18 0.13 0.10 0.09 0.09 0.08 0.09 0.08 0.06
0.07 0.11 0.06 0.04 0.03 0.04 0.03 0.03 0.03 0.04 0.04 0.06 0.07 0.08 0.09 0.10 0.10 0.10 0.11 0.10 0.12 0.15 0.17 0.19 0.21 0.22 0.20 0.18 0.20 0.23 0.26 0.26 0.26 0.27 0.27 0.20 0.12 0.08 0.06 0.05 0.06 0.06 0.06
0.23 0.12 0.07 0.08 0.07 0.05 0.05 0.05 0.06 0.07 0.08 0.09 0.10 0.11 0.15 0.14 0.13 0.14 0.15 0.14 0.15 0.18 0.19 0.21 0.22 0.21 0.20 0.20 0.23 0.26 0.29 0.30 0.30 0.28 0.29 0.28 0.26 0.17 0.09 0.05 0.03 0.03 0.03
0.26 0.17 0.10 0.08 0.07 0.06 0.07 0.08 0.07 0.08 0.11 0.11 0.12 0.14 0.17 0.17 0.20 0.22 0.24 0.23 0.22 0.23 0.23 0.22 0.20 0.18 0.21 0.25 0.28 0.29 0.31 0.33 0.30 0.24 0.21 0.20 0.20 0.18 0.11 0.06 0.03 0.02 0.02
0.15 0.15 0.10 0.09 0.08 0.07 0.08 0.11 0.11 0.12 0.12 0.13 0.17 0.19 0.21 0.22 0.27 0.27 0.27 0.29 0.32 0.31 0.27 0.24 0.22 0.20 0.18 0.18 0.19 0.24 0.26 0.23 0.18 0.16 0.13 0.10 0.08 0.08 0.07 0.06 0.03 0.02 0.01
0.05 0.05 0.05 0.07 0.07 0.06 0.09 0.12 0.12 0.13 0.15 0.15 0.19 0.25 0.30 0.31 0.30 0.29 0.29 0.31 0.32 0.30 0.27 0.24 0.21 0.18 0.15 0.13 0.12 0.13 0.12 0.11 0.10 0.10 0.08 0.06 0.05 0.05 0.06 0.06 0.04 0.02 0.01
0.02 0.03 0.03 0.04 0.05 0.06 0.09 0.10 0.11 0.11 0.12 0.16 0.19 0.21 0.23 0.30 0.37 0.40 0.44 0.44 0.42 0.37 0.30 0.24 0.21 0.17 0.13 0.10 0.08 0.07 0.07 0.07 0.07 0.07 0.07 0.06 0.04 0.04 0.04 0.04 0.03 0.02 0.02
0.02 0.02 0.03 0.03 0.04 0.05 0.06 0.08 0.09 0.11 0.13 0.16 0.18 0.21 0.24 0.33 0.40 0.40 0.40 0.40 0.37 0.33 0.27 0.21 0.14 0.09 0.07 0.06 0.05 0.05 0.05 0.05 0.05 0.05 0.05 0.04 0.04 0.03 0.03 0.03 0.03 0.03 0.02
0.02 0.02 0.02 0.02 0.03 0.03 0.04 0.04 0.06 0.09 0.11 0.13 0.15 0.16 0.18 0.21 0.25 0.27 0.28 0.27 0.24 0.21 0.15 0.10 0.08 0.07 0.06 0.05 0.05 0.05 0.05 0.04 0.04 0.04 0.04 0.04 0.03 0.03 0.03 0.03 0.03 0.04 0.04
0.02 0.02 0.02 0.03 0.03 0.03 0.04 0.05 0.06 0.08 0.10 0.11 0.10 0.11 0.11 0.12 0.13 0.14 0.16 0.15 0.13 0.11 0.09 0.08 0.07 0.07 0.06 0.06 0.06 0.05 0.04 0.04 0.04 0.04 0.04 0.04 0.04 0.04 0.04 0.04 0.04 0.04 0.04
0.02 0.02 0.03 0.03 0.03 0.03 0.03 0.04 0.06 0.07 0.07 0.06 0.06 0.07 0.07 0.06 0.07 0.08 0.09 0.09 0.08 0.08 0.07 0.07 0.07 0.08 0.08 0.07 0.07 0.07 0.07 0.07 0.08 0.08 0.08 0.08 0.07 0.05 0.05 0.05 0.05 0.04 0.04
0.03 0.03 0.03 0.02 0.02 0.03 0.03 0.03 0.03 0.03 0.03 0.03 0.03 0.03 0.03 0.04 0.05 0.06 0.07 0.08 0.07 0.07 0.07 0.06 0.07 0.08 0.09 0.10 0.10 0.10 0.09 0.09 0.10 0.10 0.09 0.08 0.06 0.06 0.05 0.05 0.04 0.04 0.03
0.03 0.04 0.03 0.02 0.02 0.02 0.02 0.02 0.01 0.01 0.02 0.02 0.02 0.03 0.03 0.04 0.05 0.05 0.06 0.07 0.07 0.06 0.06 0.06 0.07 0.08 0.09 0.10 0.10 0.10 0.09 0.09 0.08 0.07 0.07 0.06 0.05 0.05 0.04 0.03 0.03 0.02 0.02
0.02 0.02 0.02 0.02 0.01 0.01 0.01 0.01 0.01 0.01 0.01 0.01 0.02 0.02 0.03 0.04 0.04 0.04 0.04 0.04 0.05 0.05 0.06 0.07 0.08 0.08 0.08 0.08 0.07 0.06 0.06 0.05 0.04 0.03 0.03 0.02 0.02 0.02 0.02 0.02 0.02 0.01 0.01
0.02 0.01 0.01 0.01 0.01 0.01 0.01 0.01 0.01 0.01 0.01 0.01 0.01 0.02 0.02 0.02 0.02 0.03 0.03 0.04 0.04 0.04 0.04 0.04 0.04 0.03 0.03 0.02 0.02 0.01 0.01 0.01 0.01 0.00 0.00 0.00 0.00 0.00 0.00 0.00 0.01 0.01 0.01
0.02 0.02 0.01 0.02 0.02 0.01 0.01 0.01 0.01 0.01 0.01 0.01 0.02 0.02 0.02 0.02 0.02 0.03 0.03 0.04 0.04 0.03 0.02 0.02 0.02 0.01 0.01 0.00 0.00 0.00 0.00 0.00 0.01 0.00 0.00 0.00 0.00 0.00 0.00 0.00 0.00 0.00 0.00
0.06 0.04 0.03 0.03 0.03 0.03 0.02 0.02 0.02 0.01 0.01 0.01 0.01 0.02 0.01 0.01 0.01 0.02 0.02 0.02 0.02 0.02 0.01 0.01 0.01 0.00 0.00 0.00 0.00 0.00 0.00 0.01 0.01 0.01 0.01 0.01 0.00 0.01 0.01 0.00 0.00 0.01 0.01
0.07 0.06 0.05 0.03 0.03 0.02 0.02 0.02 0.02 0.01 0.01 0.01 0.01 0.01 0.01 0.01 0.01 0.02 0.02 0.02 0.02 0.01 0.01 0.01 0.01 0.01 0.00 0.00 0.00 0.00 0.00 0.01 0.01 0.01 0.01 0.01 0.01 0.01 0.00 0.00 0.01 0.03 0.05
0.07 0.06 0.05 0.04 0.03 0.03 0.02 0.02 0.02 0.02 0.02 0.01 0.01 0.01 0.01 0.01 0.01 0.02 0.02 0.02 0.02 0.02 0.02 0.02 0.02 0.03 0.02 0.00 0.00 0.00 0.00 0.01 0.01 0.01 0.01 0.01 0.01 0.00 0.00 0.00 0.02 0.06 0.08
0.08 0.07 0.06 0.05 0.04 0.04 0.03 0.03 0.02 0.02 0.01 0.01 0.01 0.01 0.01 0.01 0.01 0.01 0.02 0.02 0.02 0.02 0.02 0.02 0.03 0.04 0.03 0.00 0.00 0.00 0.00 0.01 0.01 0.03 0.05 0.02 0.00 0.00 0.00 0.00 0.02 0.05 0.06
0.09 0.08 0.08 0.07 0.05 0.04 0.03 0.03 0.02 0.01 0.01 0.01 0.01 0.01 0.01 0.00 0.01 0.01 0.01 0.02 0.02 0.03 0.03 0.04 0.04 0.05 0.02 0.00 0.00 0.00 0.00 0.00 0.01 0.05 0.09 0.07 0.00 0.00 0.00 0.00 0.01 0.02 0.01
0.08 0.07 0.06 0.05 0.04 0.03 0.03 0.02 0.02 0.01 0.01 0.01 0.01 0.01 0.00 0.00 0.01 0.01 0.02 0.02 0.02 0.03 0.04 0.05 0.05 0.05 0.04 0.01 0.00 0.00 0.00 0.00 0.01 0.06 0.08 0.06 0.00 0.00 0.00 0.00 0.00 0.00 0.00
0.05 0.04 0.03 0.03 0.03 0.03 0.03 0.02 0.02 0.01 0.01 0.01 0.00 0.00 0.01 0.01 0.01 0.01 0.02 0.03 0.03 0.03 0.02 0.03 0.04 0.05 0.05 0.03 0.00 0.00 0.00 0.00 0.01 0.03 0.02 0.00 0.00 0.01 0.04 0.02 0.00 0.00 0.04
0.04 0.03 0.03 0.03 0.03 0.03 0.03 0.03 0.02 0.01 0.01 0.01 0.00 0.00 0.01 0.01 0.01 0.02 0.01 0.01 0.02 0.02 0.02 0.02 0.03 0.04 0.04 0.02 0.00 0.00 0.01 0.01 0.02 0.02 0.02 0.02 0.03 0.03 0.06 0.06 0.06 0.07 0.09
0.03 0.03 0.03 0.03 0.02 0.02 0.01 0.01 0.01 0.00 0.01 0.01 0.01 0.00 0.01 0.01 0.02 0.02 0.01 0.00 0.01 0.00 0.00 0.01 0.01 0.01 0.01 0.00 0.00 0.00 0.00 0.00 0.00 0.00 0.04 0.11 0.12 0.13 0.14 0.14 0.14 0.14 0.13
0.02 0.02 0.02 0.01 0.01 0.01 0.02 0.01 0.01 0.00 0.01 0.01 0.01 0.00 0.00 0.01 0.01 0.02 0.02 0.00 0.00 0.00 0.00 0.00 0.00 0.00 0.00 0.00 0.00 0.00 0.00 0.00 0.00 0.01 0.07 0.11 0.12 0.11 0.11 0.11 0.11 0.13 0.12
MSLP
1004.61 1004.84 1005.12 1005.46 1005.88 1006.38 1006.96 1007.63 1008.35 1009.10 1009.82 1010.48 1011.06 1011.55 1011.94 1012.26 1012.55 1012.85 1013.18 1013.57 1014.02 1014.52 1015.02 1015.51 1015.96 1016.35 1016.68 1016.96 1017.21 1017.46 1017.71 1017.98 1018.26 1018.52 1018.76 1018.93 1019.03 1019.05 1019.00 1018.91 1018.82 1018.77 1018.79
1005.70 1005.92 1006.15 1006.38 1006.64 1006.96 1007.35 1007.84 1008.40 1009.02 1009.66 1010.28 1010.84 1011.32 1011.72 1012.05 1012.36 1012.67 1013.02 1013.43 1013.89 1014.39 1014.90 1015.39 1015.82 1016.17 1016.45 1016.68 1016.88 1017.08 1017.31 1017.60 1017.92 1018.26 1018.58 1018.84 1019.02 1019.09 1019.06 1018.96 1018.82 1018.69 1018.62
1007.20 1007.41 1007.57 1007.68 1007.78 1007.90 1008.08 1008.34 1008.71 1009.16 1009.66 1010.18 1010.69 1011.15 1011.55 1011.91 1012.25 1012.60 1012.99 1013.43 1013.92 1014.44 1014.95 1015.42 1015.81 1016.11 1016.32 1016.46 1016.58 1016.72 1016.92 1017.19 1017.53 1017.92 1018.32 1018.66 1018.92 1019.06 1019.06 1018.96 1018.79 1018.61 1018.48
1008.96 1009.15 1009.25 1009.26 1009.21 1009.14 1009.11 1009.15 1009.30 1009.56 1009.91 1010.31 1010.73 1011.16 1011.56 1011.95 1012.34 1012.74 1013.18 1013.67 1014.20 1014.74 1015.25 1015.69 1016.04 1016.27 1016.40 1016.46 1016.50 1016.57 1016.71 1016.95 1017.29 1017.71 1018.15 1018.56 1018.88 1019.07 1019.11 1019.02 1018.83 1018.61 1018.42
1010.79 1010.97 1011.02 1010.96 1010.80 1010.59 1010.38 1010.24 1010.20 1010.27 1010.45 1010.73 1011.07 1011.44 1011.84 1012.26 1012.69 1013.16 1013.66 1014.21 1014.77 1015.33 1015.84 1016.26 1016.56 1016.74 1016.80 1016.79 1016.75 1016.74 1016.82 1017.03 1017.35 1017.77 1018.23 1018.68 1019.03 1019.26 1019.32 1019.23 1019.02 1018.76 1018.51
1012.50 1012.68 1012.72 1012.62 1012.41 1012.12 1011.82 1011.54 1011.36 1011.28 1011.33 1011.49 1011.75 1012.08 1012.46 1012.89 1013.37 1013.89 1014.45 1015.04 1015.64 1016.21 1016.72 1017.12 1017.39 1017.52 1017.53 1017.46 1017.36 1017.30 1017.33 1017.49 1017.79 1018.18 1018.64 1019.08 1019.44 1019.67 1019.74 1019.64 1019.41 1019.11 1018.81
1013.95 1014.14 1014.20 1014.13 1013.94 1013.65 1013.32 1012.99 1012.73 1012.57 1012.52 1012.59 1012.78 1013.06 1013.42 1013.86 1014.36 1014.91 1015.51 1016.13 1016.74 1017.32 1017.82 1018.20 1018.45 1018.55 1018.53 1018.42 1018.29 1018.20 1018.20 1018.32 1018.57 1018.93 1019.35 1019.76 1020.10 1020.32 1020.36 1020.24 1019.99 1019.65 1019.31
1015.08 1015.29 1015.41 1015.41 1015.30 1015.08 1014.80 1014.51 1014.25 1014.05 1013.96 1013.98 1014.11 1014.35 1014.69 1015.11 1015.61 1016.16 1016.77 1017.39 1018.00 1018.56 1019.04 1019.40 1019.63 1019.71 1019.68 1019.57 1019.43 1019.33 1019.30 1019.39 1019.60 1019.90 1020.27 1020.63 1020.92 1021.09 1021.11 1020.97 1020.70 1020.34 1019.96
1015.92 1016.17 1016.37 1016.47 1016.48 1016.39 1016.22 1016.02 1015.82 1015.66 1015.56 1015.56 1015.66 1015.86 1016.16 1016.55 1017.02 1017.55 1018.12 1018.71 1019.28 1019.81 1020.26 1020.59 1020.80 1020.88 1020.85 1020.75 1020.62 1020.51 1020.47 1020.53 1020.69 1020.93 1021.22 1021.51 1021.75 1021.88 1021.86 1021.71 1021.44 1021.07 1020.68
1016.59 1016.88 1017.14 1017.36 1017.50 1017.56 1017.54 1017.47 1017.37 1017.28 1017.22 1017.22 1017.30 1017.47 1017.73 1018.07 1018.49 1018.96 1019.47 1020.00 1020.51 1020.98 1021.37 1021.67 1021.85 1021.93 1021.91 1021.82 1021.71 1021.61 1021.55 1021.58 1021.68 1021.85 1022.06 1022.27 1022.44 1022.52 1022.49 1022.34 1022.08 1021.74 1021.36
1017.21 1017.52 1017.85 1018.15 1018.42 1018.62 1018.75 1018.81 1018.82 1018.81 1018.80 1018.83 1018.90 1019.04 1019.26 1019.54 1019.88 1020.28 1020.71 1021.16 1021.58 1021.98 1022.31 1022.56 1022.71 1022.78 1022.76 1022.69 1022.58 1022.48 1022.41 1022.39 1022.43 1022.53 1022.65 1022.78 1022.88 1022.92 1022.88 1022.74 1022.52 1022.23 1021.91
1017.93 1018.23 1018.58 1018.93 1019.28 1019.58 1019.82 1020.00 1020.11 1020.18 1020.22 1020.27 1020.35 1020.46 1020.63 1020.85 1021.12 1021.43 1021.77 1022.12 1022.46 1022.77 1023.03 1023.23 1023.35 1023.40 1023.38 1023.31 1023.21 1023.10 1023.00 1022.93 1022.91 1022.92 1022.95 1023.00 1023.04 1023.04 1022.99 1022.89 1022.72 1022.51 1022.25
1018.77 1019.04 1019.37 1019.73 1020.10 1020.45 1020.76 1021.00 1021.19 1021.31 1021.40 1021.47 1021.55 1021.64 1021.76 1021.93 1022.13 1022.36 1022.61 1022.88 1023.13 1023.36 1023.55 1023.69 1023.77 1023.80 1023.78 1023.70 1023.60 1023.47 1023.34 1023.22 1023.12 1023.05 1023.00 1022.97 1022.95 1022.92 1022.87 1022.80 1022.70 1022.56 1022.38
1019.72 1019.93 1020.20 1020.51 1020.86 1021.21 1021.53 1021.80 1022.02 1022.18 1022.29 1022.38 1022.45 1022.52 1022.62 1022.73 1022.88 1023.04 1023.22 1023.40 1023.58 1023.73 1023.87 1023.96 1024.02 1024.03 1023.99 1023.91 1023.79 1023.65 1023.49 1023.32 1023.16 1023.01 1022.88 1022.78 1022.71 1022.64 1022.60 1022.55 1022.49 1022.42 1022.32
1020.66 1020.80 1020.99 1021.23 1021.52 1021.82 1022.12 1022.38 1022.60 1022.77 1022.89 1022.98 1023.05 1023.12 1023.18 1023.27 1023.36 1023.47 1023.59 1023.71 1023.82 1023.93 1024.02 1024.08 1024.11 1024.11 1024.07 1023.99 1023.87 1023.72 1023.53 1023.33 1023.11 1022.91 1022.72 1022.56 1022.43 1022.33 1022.27 1022.23 1022.20 1022.17 1022.12
1021.47 1021.54 1021.66 1021.82 1022.03 1022.27 1022.52 1022.75 1022.95 1023.12 1023.24 1023.33 1023.40 1023.45 1023.50 1023.56 1023.62 1023.69 1023.76 1023.83 1023.91 1023.97 1024.03 1024.07 1024.10 1024.10 1024.07 1024.00 1023.89 1023.74 1023.55 1023.33 1023.08 1022.84 1022.60 1022.39 1022.22 1022.09 1022.00 1021.95 1021.92 1021.89 1021.85
1022.04 1022.07 1022.13 1022.22 1022.37 1022.55 1022.74 1022.94 1023.12 1023.28 1023.40 1023.49 1023.55 1023.60 1023.64 1023.68 1023.71 1023.75 1023.79 1023.83 1023.87 1023.91 1023.95 1023.99 1024.02 1024.04 1024.03 1023.99 1023.90 1023.78 1023.60 1023.38 1023.13 1022.87 1022.60 1022.36 1022.15 1021.98 1021.85 1021.77 1021.70 1021.65 1021.58
1022.32 1022.34 1022.37 1022.44 1022.54 1022.68 1022.84 1023.01 1023.18 1023.33 1023.45 1023.55 1023.61 1023.66 1023.69 1023.71 1023.72 1023.73 1023.74 1023.75 1023.77 1023.80 1023.84 1023.88 1023.93 1023.97 1024.00 1023.99 1023.95 1023.86 1023.71 1023.51 1023.28 1023.01 1022.74 1022.47 1022.23 1022.02 1021.85 1021.71 1021.59 1021.47 1021.34
1022.34 1022.39 1022.44 1022.50 1022.60 1022.73 1022.88 1023.05 1023.21 1023.37 1023.50 1023.60 1023.67 1023.72 1023.74 1023.74 1023.73 1023.72 1023.70 1023.69 1023.69 1023.71 1023.75 1023.81 1023.88 1023.95 1024.02 1024.05 1024.05 1024.00 1023.89 1023.72 1023.50 1023.25 1022.97 1022.69 1022.42 1022.17 1021.95 1021.74 1021.55 1021.36 1021.15
1022.21 1022.32 1022.40 1022.50 1022.62 1022.76 1022.93 1023.11 1023.29 1023.46 1023.60 1023.72 1023.79 1023.84 1023.85 1023.84 1023.81 1023.77 1023.74 1023.71 1023.70 1023.72 1023.77 1023.84 1023.93 1024.03 1024.12 1024.19 1024.22 1024.20 1024.12 1023.97 1023.77 1023.52 1023.24 1022.95 1022.65 1022.36 1022.08 1021.82 1021.55 1021.28 1020.99
1022.05 1022.22 1022.36 1022.51 1022.67 1022.84 1023.04 1023.24 1023.44 1023.63 1023.79 1023.91 1024.00 1024.04 1024.05 1024.03 1023.99 1023.94 1023.89 1023.86 1023.85 1023.87 1023.92 1024.00 1024.11 1024.23 1024.34 1024.42 1024.46 1024.45 1024.38 1024.23 1024.03 1023.77 1023.48 1023.16 1022.83 1022.50 1022.18 1021.85 1021.52 1021.18 1020.81
1021.96 1022.19 1022.39 1022.59 1022.78 1022.99 1023.21 1023.44 1023.66 1023.86 1024.04 1024.17 1024.27 1024.31 1024.32 1024.30 1024.26 1024.21 1024.16 1024.13 1024.13 1024.16 1024.22 1024.31 1024.43 1024.55 1024.65 1024.73 1024.76 1024.72 1024.62 1024.45 1024.22 1023.93 1023.60 1023.25 1022.89 1022.53 1022.16 1021.79 1021.41 1021.01 1020.60
1021.99 1022.27 1022.51 1022.74 1022.96 1023.19 1023.43 1023.67 1023.90 1024.11 1024.29 1024.43 1024.53 1024.59 1024.61 1024.60 1024.56 1024.53 1024.50 1024.49 1024.51 1024.55 1024.64 1024.74 1024.85 1024.96 1025.04 1025.08 1025.06 1024.98 1024.82 1024.59 1024.30 1023.96 1023.59 1023.20 1022.80 1022.40 1022.01 1021.61 1021.20 1020.77 1020.32
1022.14 1022.43 1022.69 1022.93 1023.16 1023.39 1023.63 1023.86 1024.09 1024.29 1024.47 1024.62 1024.73 1024.79 1024.83 1024.84 1024.83 1024.83 1024.83 1024.86 1024.91 1024.99 1025.09 1025.20 1025.30 1025.39 1025.43 1025.41 1025.33 1025.17 1024.93 1024.62 1024.26 1023.86 1023.43 1023.00 1022.57 1022.14 1021.73 1021.32 1020.90 1020.47 1020.01
1022.36 1022.64 1022.88 1023.10 1023.32 1023.53 1023.74 1023.96 1024.16 1024.36 1024.53 1024.67 1024.78 1024.86 1024.91 1024.95 1024.99 1025.03 1025.08 1025.16 1025.25 1025.37 1025.49 1025.61 1025.70 1025.76 1025.75 1025.67 1025.50 1025.25 1024.93 1024.54 1024.10 1023.63 1023.15 1022.68 1022.23 1021.80 1021.38 1020.97 1020.57 1020.15 1019.70
1022.55 1022.80 1023.01 1023.20 1023.38 1023.56 1023.74 1023.92 1024.09 1024.26 1024.41 1024.54 1024.65 1024.75 1024.83 1024.90 1024.98 1025.07 1025.18 1025.31 1025.45 1025.61 1025.76 1025.88 1025.96 1025.98 1025.93 1025.78 1025.54 1025.22 1024.81 1024.35 1023.84 1023.33 1022.82 1022.33 1021.87 1021.45 1021.05 1020.67 1020.29 1019.90 1019.48
Thickness
5794 5795 5793 5794 5791 5786 5782 5779 5775 5773 5769 5765 5760 5756 5754 5754 5753 5752 5750 5746 5743 5739 5736 5734 5732 5729 5724 5721 5717 5714 5710 5706 5704 5698 5694 5694 5694 5693 5692 5691 5689 5687 5685
5776 5776 5778 5779 5779 5776 5774 5772 5769 5768 5765 5763 5759 5756 5753 5751 5751 5749 5746 5743 5739 5735 5732 5729 5727 5724 5719 5716 5712 5708 5704 5700 5696 5691 5685 5679 5680 5682 5684 5683 5681 5680 5677
5751 5755 5760 5763 5765 5764 5764 5765 5763 5763 5761 5760 5757 5753 5750 5747 5745 5742 5740 5737 5733 5729 5725 5723 5721 5718 5715 5710 5706 5704 5700 5693 5690 5689 5683 5675 5673 5674 5673 5674 5673 5671 5669
5733 5737 5741 5747 5750 5753 5755 5756 5756 5755 5755 5754 5751 5746 5741 5737 5737 5735 5732 5729 5726 5721 5719 5715 5712 5711 5709 5702 5698 5697 5695 5691 5686 5683 5682 5677 5675 5668 5663 5663 5664 5662 5660
5718 5721 5726 5731 5735 5741 5745 5746 5746 5746 5746 5746 5744 5740 5735 5733 5730 5727 5723 5718 5715 5711 5709 5705 5701 5699 5697 5695 5692 5689 5687 5685 5681 5677 5673 5669 5666 5664 5659 5654 5652 5651 5650
5708 5710 5714 5717 5721 5727 5731 5732 5732 5733 5735 5734 5733 5730 5727 5723 5719 5715 5711 5706 5700 5696 5695 5693 5688 5686 5684 5683 5681 5678 5675 5673 5671 5668 5664 5660 5657 5654 5651 5647 5642 5640 5639
5696 5697 5699 5702 5705 5710 5714 5716 5718 5717 5718 5719 5718 5717 5715 5713 5708 5703 5698 5694 5687 5681 5680 5678 5675 5672 5670 5668 5667 5664 5660 5658 5655 5653 5649 5646 5643 5643 5640 5636 5632 5629 5626
5684 5684 5685 5687 5690 5693 5697 5701 5702 5701 5702 5702 5701 5699 5700 5698 5692 5687 5682 5677 5671 5667 5665 5663 5660 5657 5655 5653 5650 5648 5645 5642 5639 5637 5634 5630 5628 5627 5625 5622 5618 5615 5612
5672 5672 5673 5675 5676 5678 5680 5682 5684 5684 5684 5683 5683 5681 5681 5679 5674 5668 5664 5658 5654 5650 5649 5647 5644 5641 5639 5636 5634 5630 5628 5625 5622 5619 5616 5615 5612 5610 5608 5605 5602 5598 5593
5661 5661 5662 5662 5663 5663 5664 5665 5666 5666 5664 5665 5665 5663 5662 5660 5655 5652 5645 5640 5636 5635 5632 5629 5627 5624 5621 5618 5616 5612 5609 5607 5604 5601 5599 5597 5595 5593 5591 5588 5585 5582 5579
5650 5649 5650 5650 5650 5650 5650 5651 5650 5649 5649 5649 5648 5646 5643 5641 5638 5634 5629 5625 5621 5619 5616 5613 5610 5607 5604 5600 5597 5595 5591 5590 5587 5585 5583 5580 5579 5576 5574 5572 5570 5566 5563
5639 5639 5638 5638 5637 5636 5636 5635 5635 5635 5634 5633 5631 5629 5627 5624 5621 5616 5612 5609 5606 5603 5599 5597 5593 5590 5587 5584 5581 5579 5575 5573 5571 5569 5567 5564 5563 5559 5557 5554 5552 5549 5546
5628 5627 5626 5624 5623 5622 5622 5621 5620 5620 5618 5616 5615 5612 5610 5607 5603 5599 5595 5592 5589 5586 5583 5580 5576 5573 5570 5567 5565 5563 5560 5558 5556 5553 5551 5549 5546 5543 5540 5537 5535 5532 5530
5616 5614 5612 5610 5609 5608 5607 5606 5604 5603 5601 5600 5598 5595 5592 5588 5585 5582 5579 5575 5572 5569 5566 5563 5559 5556 5553 5551 5548 5547 5545 5544 5541 5539 5536 5534 5531 5527 5523 5521 5517 5514 5511
5603 5600 5598 5596 5595 5594 5592 5590 5589 5587 5585 5584 5581 5578 5575 5572 5569 5566 5563 5560 5558 5554 5551 5547 5544 5541 5538 5534 5531 5530 5531 5529 5527 5524 5522 5519 5515 5509 5506 5503 5499 5495 5493
5590 5588 5585 5583 5581 5580 5578 5576 5574 5572 5571 5569 5566 5563 5560 5558 5555 5552 5550 5547 5545 5542 5539 5535 5531 5527 5522 5517 5515 5513 5512 5512 5510 5508 5505 5503 5500 5494 5490 5487 5484 5480 5478
5580 5576 5573 5571 5569 5567 5565 5563 5561 5560 5558 5555 5553 5551 5549 5546 5543 5541 5539 5536 5533 5530 5527 5522 5518 5512 5506 5502 5500 5498 5496 5495 5494 5492 5489 5487 5486 5480 5476 5474 5472 5470 5469
5569 5565 5562 5559 5557 5555 5553 5552 5550 5549 5547 5544 5542 5540 5538 5535 5533 5530 5528 5525 5522 5519 5515 5511 5506 5500 5493 5488 5485 5483 5482 5483 5481 5479 5476 5472 5469 5465 5461 5460 5461 5461 5462
5559 5556 5553 5550 5547 5545 5544 5542 5540 5539 5537 5534 5532 5530 5528 5526 5523 5520 5517 5514 5512 5509 5505 5501 5495 5488 5480 5475 5472 5469 5469 5470 5468 5466 5463 5460 5457 5451 5449 5449 5451 5454 5456
5549 5546 5544 5541 5538 5536 5535 5533 5531 5530 5528 5526 5523 5521 5518 5516 5513 5510 5508 5505 5503 5500 5496 5491 5485 5478 5470 5463 5459 5455 5456 5455 5454 5453 5451 5448 5446 5443 5442 5442 5445 5447 5450
5541 5539 5536 5533 5530 5528 5526 5524 5523 5521 5519 5517 5515 5512 5510 5507 5505 5502 5499 5497 5494 5491 5487 5482 5476 5469 5461 5454 5449 5446 5444 5443 5443 5445 5444 5443 5441 5441 5440 5440 5442 5444 5446
5535 5532 5529 5525 5523 5521 5520 5517 5515 5514 5512 5510 5507 5505 5503 5501 5498 5495 5492 5490 5487 5483 5479 5474 5468 5462 5455 5449 5445 5441 5439 5437 5437 5440 5441 5442 5442 5443 5444 5445 5447 5447 5448
5530 5527 5524 5521 5517 5515 5513 5510 5508 5507 5505 5502 5500 5498 5496 5494 5491 5489 5486 5483 5480 5476 5473 5468 5463 5457 5452 5447 5442 5440 5439 5438 5438 5440 5441 5443 5446 5447 5449 5451 5450 5451 5453
5526 5523 5519 5516 5512 5510 5507 5505 5503 5501 5498 5496 5494 5493 5491 5488 5485 5482 5479 5476 5472 5468 5466 5463 5458 5454 5450 5443 5440 5439 5440 5440 5441 5441 5444 5448 5451 5452 5452 5453 5455 5455 5456
5523 5519 5515 5511 5508 5505 5502 5500 5498 5496 5493 5491 5490 5489 5487 5485 5481 5476 5470 5467 5460 5457 5454 5453 5451 5448 5446 5439 5435 5435 5437 5437 5439 5439 5445 5450 5453 5454 5455 5456 5457 5457 5458
5520 5516 5512 5508 5505 5502 5498 5496 5494 5492 5489 5487 5487 5486 5485 5482 5479 5474 5467 5459 5456 5452 5449 5446 5444 5444 5440 5440 5440 5439 5440 5441 5442 5443 5448 5451 5453 5454 5455 5456 5458 5459 5460